Year,Month,Day,Hour,Minute,Value (Times are PST for temperature in C)
2010,08,12,00,00,17.30
2010,08,12,00,01,17.30
2010,08,12,00,02,17.30
2010,08,12,00,03,17.20
2010,08,12,00,04,17.20
2010,08,12,00,05,17.20
2010,08,12,00,06,17.20
2010,08,12,00,07,17.20
2010,08,12,00,08,17.20
2010,08,12,00,09,17.20
2010,08,12,00,10,17.20
2010,08,12,00,11,17.20
2010,08,12,00,12,17.20
2010,08,12,00,13,17.20
2010,08,12,00,14,17.20
2010,08,12,00,15,17.20
2010,08,12,00,16,17.20
2010,08,12,00,17,17.20
2010,08,12,00,18,17.20
2010,08,12,00,19,17.20
2010,08,12,00,20,17.10
2010,08,12,00,21,17.10
2010,08,12,00,22,17.10
2010,08,12,00,23,17.10
2010,08,12,00,24,17.10
2010,08,12,00,25,17.10
2010,08,12,00,26,17.10
2010,08,12,00,27,17.10
2010,08,12,00,28,17.10
2010,08,12,00,29,17.00
2010,08,12,00,30,17.00
2010,08,12,00,31,17.00
2010,08,12,00,32,17.00
2010,08,12,00,33,17.00
2010,08,12,00,34,16.90
2010,08,12,00,35,16.90
2010,08,12,00,36,16.90
2010,08,12,00,37,16.90
2010,08,12,00,38,16.90
2010,08,12,00,39,16.90
2010,08,12,00,40,16.90
2010,08,12,00,41,16.90
2010,08,12,00,42,16.90
2010,08,12,00,43,16.90
2010,08,12,00,44,16.90
2010,08,12,00,45,16.90
2010,08,12,00,46,16.90
2010,08,12,00,47,16.90
2010,08,12,00,48,16.80
2010,08,12,00,49,16.80
2010,08,12,00,50,16.80
2010,08,12,00,51,16.80
2010,08,12,00,52,16.80
2010,08,12,00,53,16.80
2010,08,12,00,54,16.80
2010,08,12,00,55,16.80
2010,08,12,00,56,16.80
2010,08,12,00,57,16.80
2010,08,12,00,58,16.80
2010,08,12,00,59,16.80
2010,08,12,01,00,16.80
2010,08,12,01,01,16.80
2010,08,12,01,02,16.80
2010,08,12,01,03,16.80
2010,08,12,01,04,16.80
2010,08,12,01,05,16.80
2010,08,12,01,06,16.70
2010,08,12,01,07,16.70
2010,08,12,01,08,16.70
2010,08,12,01,09,16.70
2010,08,12,01,10,16.70
2010,08,12,01,11,16.60
2010,08,12,01,12,16.60
2010,08,12,01,13,16.60
2010,08,12,01,14,16.60
2010,08,12,01,15,16.60
2010,08,12,01,16,16.60
2010,08,12,01,17,16.50
2010,08,12,01,18,16.50
2010,08,12,01,19,16.50
2010,08,12,01,20,16.50
2010,08,12,01,21,16.50
2010,08,12,01,22,16.40
2010,08,12,01,23,16.40
2010,08,12,01,24,16.40
2010,08,12,01,25,16.40
2010,08,12,01,26,16.40
2010,08,12,01,27,16.40
2010,08,12,01,28,16.40
2010,08,12,01,29,16.40
2010,08,12,01,30,16.30
2010,08,12,01,31,16.30
2010,08,12,01,32,16.30
2010,08,12,01,33,16.30
2010,08,12,01,34,16.30
2010,08,12,01,35,16.20
2010,08,12,01,36,16.20
2010,08,12,01,37,16.20
2010,08,12,01,38,16.20
2010,08,12,01,39,16.20
2010,08,12,01,40,16.20
2010,08,12,01,41,16.20
2010,08,12,01,42,16.10
2010,08,12,01,43,16.10
2010,08,12,01,44,16.10
2010,08,12,01,45,16.10
2010,08,12,01,46,16.10
2010,08,12,01,47,16.10
2010,08,12,01,48,16.00
2010,08,12,01,49,16.00
2010,08,12,01,50,16.00
2010,08,12,01,51,16.00
2010,08,12,01,52,16.00
2010,08,12,01,53,16.00
2010,08,12,01,54,16.00
2010,08,12,01,55,15.90
2010,08,12,01,56,15.90
2010,08,12,01,57,15.90
2010,08,12,01,58,15.90
2010,08,12,01,59,15.90
2010,08,12,02,00,15.80
2010,08,12,02,01,15.80
2010,08,12,02,02,15.80
2010,08,12,02,03,15.80
2010,08,12,02,04,15.80
2010,08,12,02,05,15.80
2010,08,12,02,06,15.80
2010,08,12,02,07,15.80
2010,08,12,02,08,15.80
2010,08,12,02,09,15.90
2010,08,12,02,10,15.90
2010,08,12,02,11,15.90
2010,08,12,02,12,15.90
2010,08,12,02,13,15.90
2010,08,12,02,14,16.00
2010,08,12,02,15,16.00
2010,08,12,02,16,16.00
2010,08,12,02,17,16.00
2010,08,12,02,18,16.00
2010,08,12,02,19,15.90
2010,08,12,02,20,15.90
2010,08,12,02,21,15.90
2010,08,12,02,22,15.90
2010,08,12,02,23,15.90
2010,08,12,02,24,15.80
2010,08,12,02,25,15.80
2010,08,12,02,26,15.80
2010,08,12,02,27,15.80
2010,08,12,02,28,15.80
2010,08,12,02,29,15.80
2010,08,12,02,30,15.80
2010,08,12,02,31,15.80
2010,08,12,02,32,15.70
2010,08,12,02,33,15.70
2010,08,12,02,34,15.70
2010,08,12,02,35,15.70
2010,08,12,02,36,15.70
2010,08,12,02,37,15.70
2010,08,12,02,38,15.70
2010,08,12,02,39,15.70
2010,08,12,02,40,15.60
2010,08,12,02,41,15.60
2010,08,12,02,42,15.60
2010,08,12,02,43,15.60
2010,08,12,02,44,15.60
2010,08,12,02,45,15.60
2010,08,12,02,46,15.60
2010,08,12,02,47,15.60
2010,08,12,02,48,15.60
2010,08,12,02,49,15.60
2010,08,12,02,50,15.60
2010,08,12,02,51,15.60
2010,08,12,02,52,15.60
2010,08,12,02,53,15.60
2010,08,12,02,54,15.60
2010,08,12,02,55,15.60
2010,08,12,02,56,15.60
2010,08,12,02,57,15.60
2010,08,12,02,58,15.60
2010,08,12,02,59,15.60
2010,08,12,03,00,15.60
2010,08,12,03,01,15.60
2010,08,12,03,02,15.50
2010,08,12,03,03,15.50
2010,08,12,03,04,15.50
2010,08,12,03,05,15.50
2010,08,12,03,06,15.50
2010,08,12,03,07,15.50
2010,08,12,03,08,15.50
2010,08,12,03,09,15.50
2010,08,12,03,10,15.50
2010,08,12,03,11,15.50
2010,08,12,03,12,15.40
2010,08,12,03,13,15.40
2010,08,12,03,14,15.40
2010,08,12,03,15,15.40
2010,08,12,03,16,15.40
2010,08,12,03,17,15.40
2010,08,12,03,18,15.40
2010,08,12,03,19,15.40
2010,08,12,03,20,15.40
2010,08,12,03,21,15.30
2010,08,12,03,22,15.30
2010,08,12,03,23,15.30
2010,08,12,03,24,15.30
2010,08,12,03,25,15.30
2010,08,12,03,26,15.30
2010,08,12,03,27,15.30
2010,08,12,03,28,15.20
2010,08,12,03,29,15.20
2010,08,12,03,30,15.20
2010,08,12,03,31,15.20
2010,08,12,03,32,15.20
2010,08,12,03,33,15.20
2010,08,12,03,34,15.20
2010,08,12,03,35,15.20
2010,08,12,03,36,15.20
2010,08,12,03,37,15.20
2010,08,12,03,38,15.20
2010,08,12,03,39,15.20
2010,08,12,03,40,15.20
2010,08,12,03,41,15.20
2010,08,12,03,42,15.20
2010,08,12,03,43,15.20
2010,08,12,03,44,15.20
2010,08,12,03,45,15.20
2010,08,12,03,46,15.20
2010,08,12,03,47,15.20
2010,08,12,03,48,15.20
2010,08,12,03,49,15.20
2010,08,12,03,50,15.20
2010,08,12,03,51,15.20
2010,08,12,03,52,15.20
2010,08,12,03,53,15.20
2010,08,12,03,54,15.20
2010,08,12,03,55,15.10
2010,08,12,03,56,15.10
2010,08,12,03,57,15.10
2010,08,12,03,58,15.10
2010,08,12,03,59,15.00
2010,08,12,04,00,15.00
2010,08,12,04,01,15.00
2010,08,12,04,02,15.00
2010,08,12,04,03,15.00
2010,08,12,04,04,15.00
2010,08,12,04,05,15.00
2010,08,12,04,06,15.00
2010,08,12,04,07,15.00
2010,08,12,04,08,15.00
2010,08,12,04,09,15.00
2010,08,12,04,10,15.00
2010,08,12,04,11,15.00
2010,08,12,04,12,15.00
2010,08,12,04,13,15.00
2010,08,12,04,14,15.00
2010,08,12,04,15,15.00
2010,08,12,04,16,15.00
2010,08,12,04,17,15.00
2010,08,12,04,18,15.00
2010,08,12,04,19,15.00
2010,08,12,04,20,15.00
2010,08,12,04,21,15.00
2010,08,12,04,22,15.00
2010,08,12,04,23,15.00
2010,08,12,04,24,15.00
2010,08,12,04,25,15.00
2010,08,12,04,26,15.00
2010,08,12,04,27,15.00
2010,08,12,04,28,15.00
2010,08,12,04,29,15.00
2010,08,12,04,30,15.00
2010,08,12,04,31,15.00
2010,08,12,04,32,15.00
2010,08,12,04,33,15.00
2010,08,12,04,34,15.00
2010,08,12,04,35,15.00
2010,08,12,04,36,15.00
2010,08,12,04,37,15.00
2010,08,12,04,38,15.00
2010,08,12,04,39,15.00
2010,08,12,04,40,15.10
2010,08,12,04,41,15.10
2010,08,12,04,42,15.10
2010,08,12,04,43,15.10
2010,08,12,04,44,15.00
2010,08,12,04,45,15.10
2010,08,12,04,46,15.10
2010,08,12,04,47,15.00
2010,08,12,04,48,15.00
2010,08,12,04,49,15.00
2010,08,12,04,50,15.00
2010,08,12,04,51,15.00
2010,08,12,04,52,15.00
2010,08,12,04,53,15.20
2010,08,12,04,54,15.30
2010,08,12,04,55,15.30
2010,08,12,04,56,15.40
2010,08,12,04,57,15.40
2010,08,12,04,58,15.40
2010,08,12,04,59,15.50
2010,08,12,05,00,15.50
2010,08,12,05,01,15.50
2010,08,12,05,02,15.60
2010,08,12,05,03,15.50
2010,08,12,05,04,15.60
2010,08,12,05,05,15.60
2010,08,12,05,06,15.60
2010,08,12,05,07,15.60
2010,08,12,05,08,15.60
2010,08,12,05,09,15.50
2010,08,12,05,10,15.50
2010,08,12,05,11,15.50
2010,08,12,05,12,15.40
2010,08,12,05,13,15.40
2010,08,12,05,14,15.40
2010,08,12,05,15,15.30
2010,08,12,05,16,15.30
2010,08,12,05,17,15.30
2010,08,12,05,18,15.20
2010,08,12,05,19,15.20
2010,08,12,05,20,15.20
2010,08,12,05,21,15.10
2010,08,12,05,22,15.10
2010,08,12,05,23,15.00
2010,08,12,05,24,15.00
2010,08,12,05,25,15.00
2010,08,12,05,26,15.00
2010,08,12,05,27,15.00
2010,08,12,05,28,15.00
2010,08,12,05,29,15.00
2010,08,12,05,30,15.00
2010,08,12,05,31,15.00
2010,08,12,05,32,15.00
2010,08,12,05,33,15.00
2010,08,12,05,34,15.00
2010,08,12,05,35,15.00
2010,08,12,05,36,15.00
2010,08,12,05,37,15.00
2010,08,12,05,38,14.90
2010,08,12,05,39,14.90
2010,08,12,05,40,14.90
2010,08,12,05,41,14.80
2010,08,12,05,42,14.80
2010,08,12,05,43,14.80
2010,08,12,05,44,14.80
2010,08,12,05,45,14.80
2010,08,12,05,46,14.80
2010,08,12,05,47,14.80
2010,08,12,05,48,14.90
2010,08,12,05,49,14.90
2010,08,12,05,50,15.00
2010,08,12,05,51,15.00
2010,08,12,05,52,15.00
2010,08,12,05,53,15.00
2010,08,12,05,54,15.00
2010,08,12,05,55,15.10
2010,08,12,05,56,15.20
2010,08,12,05,57,15.20
2010,08,12,05,58,15.20
2010,08,12,05,59,15.20
2010,08,12,06,00,15.20
2010,08,12,06,01,15.20
2010,08,12,06,02,15.20
2010,08,12,06,03,15.20
2010,08,12,06,04,15.30
2010,08,12,06,05,15.20
2010,08,12,06,06,15.20
2010,08,12,06,07,15.30
2010,08,12,06,08,15.20
2010,08,12,06,09,15.20
2010,08,12,06,10,15.20
2010,08,12,06,11,15.20
2010,08,12,06,12,15.20
2010,08,12,06,13,15.20
2010,08,12,06,14,15.20
2010,08,12,06,15,15.20
2010,08,12,06,16,15.20
2010,08,12,06,17,15.20
2010,08,12,06,18,15.10
2010,08,12,06,19,15.10
2010,08,12,06,20,15.00
2010,08,12,06,21,15.00
2010,08,12,06,22,15.00
2010,08,12,06,23,15.00
2010,08,12,06,24,15.00
2010,08,12,06,25,15.00
2010,08,12,06,26,15.00
2010,08,12,06,27,15.00
2010,08,12,06,28,15.00
2010,08,12,06,29,15.00
2010,08,12,06,30,15.00
2010,08,12,06,31,14.90
2010,08,12,06,32,14.90
2010,08,12,06,33,14.90
2010,08,12,06,34,14.90
2010,08,12,06,35,14.90
2010,08,12,06,36,15.00
2010,08,12,06,37,15.00
2010,08,12,06,38,15.00
2010,08,12,06,39,15.00
2010,08,12,06,40,15.00
2010,08,12,06,41,15.00
2010,08,12,06,42,15.00
2010,08,12,06,43,15.00
2010,08,12,06,44,15.00
2010,08,12,06,45,15.10
2010,08,12,06,46,15.20
2010,08,12,06,47,15.20
2010,08,12,06,48,15.30
2010,08,12,06,49,15.30
2010,08,12,06,50,15.40
2010,08,12,06,51,15.40
2010,08,12,06,52,15.40
2010,08,12,06,53,15.40
2010,08,12,06,54,15.50
2010,08,12,06,55,15.50
2010,08,12,06,56,15.50
2010,08,12,06,57,15.60
2010,08,12,06,58,15.60
2010,08,12,06,59,15.60
2010,08,12,07,00,15.60
2010,08,12,07,01,15.60
2010,08,12,07,02,15.60
2010,08,12,07,03,15.60
2010,08,12,07,04,15.60
2010,08,12,07,05,15.60
2010,08,12,07,06,15.70
2010,08,12,07,07,15.70
2010,08,12,07,08,15.70
2010,08,12,07,09,15.70
2010,08,12,07,10,15.80
2010,08,12,07,11,15.80
2010,08,12,07,12,15.80
2010,08,12,07,13,15.80
2010,08,12,07,14,15.80
2010,08,12,07,15,15.80
2010,08,12,07,16,15.90
2010,08,12,07,17,15.90
2010,08,12,07,18,15.90
2010,08,12,07,19,16.00
2010,08,12,07,20,16.00
2010,08,12,07,21,16.00
2010,08,12,07,22,16.10
2010,08,12,07,23,16.10
2010,08,12,07,24,16.10
2010,08,12,07,25,16.10
2010,08,12,07,26,16.20
2010,08,12,07,27,16.20
2010,08,12,07,28,16.20
2010,08,12,07,29,16.20
2010,08,12,07,30,16.20
2010,08,12,07,31,16.20
2010,08,12,07,32,16.30
2010,08,12,07,33,16.30
2010,08,12,07,34,16.30
2010,08,12,07,35,16.30
2010,08,12,07,36,16.30
2010,08,12,07,37,16.30
2010,08,12,07,38,16.30
2010,08,12,07,39,16.40
2010,08,12,07,40,16.40
2010,08,12,07,41,16.40
2010,08,12,07,42,16.40
2010,08,12,07,43,16.40
2010,08,12,07,44,16.50
2010,08,12,07,45,16.50
2010,08,12,07,46,16.50
2010,08,12,07,47,16.60
2010,08,12,07,48,16.60
2010,08,12,07,49,16.60
2010,08,12,07,50,16.60
2010,08,12,07,51,16.70
2010,08,12,07,52,16.70
2010,08,12,07,53,16.70
2010,08,12,07,54,16.80
2010,08,12,07,55,16.80
2010,08,12,07,56,16.80
2010,08,12,07,57,16.80
2010,08,12,07,58,16.90
2010,08,12,07,59,16.90
2010,08,12,08,00,16.90
2010,08,12,08,01,16.90
2010,08,12,08,02,16.90
2010,08,12,08,03,17.00
2010,08,12,08,04,17.00
2010,08,12,08,05,17.10
2010,08,12,08,06,17.10
2010,08,12,08,07,17.10
2010,08,12,08,08,17.20
2010,08,12,08,09,17.20
2010,08,12,08,10,17.20
2010,08,12,08,11,17.20
2010,08,12,08,12,17.30
2010,08,12,08,13,17.30
2010,08,12,08,14,17.30
2010,08,12,08,15,17.30
2010,08,12,08,16,17.30
2010,08,12,08,17,17.30
2010,08,12,08,18,17.30
2010,08,12,08,19,17.30
2010,08,12,08,20,17.30
2010,08,12,08,21,17.30
2010,08,12,08,22,17.30
2010,08,12,08,23,17.30
2010,08,12,08,24,17.30
2010,08,12,08,25,17.30
2010,08,12,08,26,17.40
2010,08,12,08,27,17.40
2010,08,12,08,28,17.40
2010,08,12,08,29,17.50
2010,08,12,08,30,17.50
2010,08,12,08,31,17.60
2010,08,12,08,32,17.60
2010,08,12,08,33,17.60
2010,08,12,08,34,17.60
2010,08,12,08,35,17.70
2010,08,12,08,36,17.70
2010,08,12,08,37,17.70
2010,08,12,08,38,17.70
2010,08,12,08,39,17.70
2010,08,12,08,40,17.70
2010,08,12,08,41,17.70
2010,08,12,08,42,17.70
2010,08,12,08,43,17.70
2010,08,12,08,44,17.70
2010,08,12,08,45,17.70
2010,08,12,08,46,17.70
2010,08,12,08,47,17.70
2010,08,12,08,48,17.70
2010,08,12,08,49,17.70
2010,08,12,08,50,17.70
2010,08,12,08,51,17.70
2010,08,12,08,52,17.70
2010,08,12,08,53,17.80
2010,08,12,08,54,17.80
2010,08,12,08,55,17.80
2010,08,12,08,56,17.80
2010,08,12,08,57,17.80
2010,08,12,08,58,17.90
2010,08,12,08,59,17.90
2010,08,12,09,00,17.90
2010,08,12,09,01,17.90
2010,08,12,09,02,17.90
2010,08,12,09,03,17.90
2010,08,12,09,04,17.80
2010,08,12,09,05,17.80
2010,08,12,09,06,17.80
2010,08,12,09,07,17.80
2010,08,12,09,08,17.80
2010,08,12,09,09,17.70
2010,08,12,09,10,17.70
2010,08,12,09,11,17.70
2010,08,12,09,12,17.60
2010,08,12,09,13,17.50
2010,08,12,09,14,17.50
2010,08,12,09,15,17.60
2010,08,12,09,16,17.60
2010,08,12,09,17,17.70
2010,08,12,09,18,17.70
2010,08,12,09,19,17.70
2010,08,12,09,20,17.70
2010,08,12,09,21,17.70
2010,08,12,09,22,17.80
2010,08,12,09,23,17.80
2010,08,12,09,24,17.80
2010,08,12,09,25,17.80
2010,08,12,09,26,17.80
2010,08,12,09,27,17.80
2010,08,12,09,28,17.80
2010,08,12,09,29,17.80
2010,08,12,09,30,17.80
2010,08,12,09,31,17.80
2010,08,12,09,32,17.80
2010,08,12,09,33,17.80
2010,08,12,09,34,17.80
2010,08,12,09,35,17.80
2010,08,12,09,36,17.70
2010,08,12,09,37,17.60
2010,08,12,09,38,17.60
2010,08,12,09,39,17.50
2010,08,12,09,40,17.40
2010,08,12,09,41,17.30
2010,08,12,09,42,17.20
2010,08,12,09,43,17.20
2010,08,12,09,44,17.20
2010,08,12,09,45,17.20
2010,08,12,09,46,17.20
2010,08,12,09,47,17.30
2010,08,12,09,48,17.20
2010,08,12,09,49,17.20
2010,08,12,09,50,17.20
2010,08,12,09,51,17.20
2010,08,12,09,52,17.20
2010,08,12,09,53,17.30
2010,08,12,09,54,17.30
2010,08,12,09,55,17.30
2010,08,12,09,56,17.40
2010,08,12,09,57,17.40
2010,08,12,09,58,17.40
2010,08,12,09,59,17.40
2010,08,12,10,00,17.50
2010,08,12,10,01,17.60
2010,08,12,10,02,17.60
2010,08,12,10,03,17.70
2010,08,12,10,04,17.60
2010,08,12,10,05,17.60
2010,08,12,10,06,17.60
2010,08,12,10,07,17.70
2010,08,12,10,08,17.70
2010,08,12,10,09,17.80
2010,08,12,10,10,17.80
2010,08,12,10,11,17.80
2010,08,12,10,12,17.80
2010,08,12,10,13,17.80
2010,08,12,10,14,17.80
2010,08,12,10,15,17.80
2010,08,12,10,16,17.80
2010,08,12,10,17,17.80
2010,08,12,10,18,17.80
2010,08,12,10,19,17.90
2010,08,12,10,20,17.90
2010,08,12,10,21,18.00
2010,08,12,10,22,18.00
2010,08,12,10,23,18.10
2010,08,12,10,24,18.10
2010,08,12,10,25,18.10
2010,08,12,10,26,18.20
2010,08,12,10,27,18.20
2010,08,12,10,28,18.30
2010,08,12,10,29,18.30
2010,08,12,10,30,18.40
2010,08,12,10,31,18.40
2010,08,12,10,32,18.40
2010,08,12,10,33,18.50
2010,08,12,10,34,18.50
2010,08,12,10,35,18.60
2010,08,12,10,36,18.70
2010,08,12,10,37,18.70
2010,08,12,10,38,18.70
2010,08,12,10,39,18.70
2010,08,12,10,40,18.70
2010,08,12,10,41,18.70
2010,08,12,10,42,18.70
2010,08,12,10,43,18.60
2010,08,12,10,44,18.60
2010,08,12,10,45,18.70
2010,08,12,10,46,18.70
2010,08,12,10,47,18.80
2010,08,12,10,48,18.90
2010,08,12,10,49,18.90
2010,08,12,10,50,19.00
2010,08,12,10,51,18.90
2010,08,12,10,52,18.90
2010,08,12,10,53,18.80
2010,08,12,10,54,18.80
2010,08,12,10,55,18.70
2010,08,12,10,56,18.70
2010,08,12,10,57,18.70
2010,08,12,10,58,18.70
2010,08,12,10,59,18.70
2010,08,12,11,00,18.80
2010,08,12,11,01,18.80
2010,08,12,11,02,18.90
2010,08,12,11,03,18.90
2010,08,12,11,04,18.90
2010,08,12,11,05,18.90
2010,08,12,11,06,19.00
2010,08,12,11,07,19.00
2010,08,12,11,08,19.00
2010,08,12,11,09,19.00
2010,08,12,11,10,19.00
2010,08,12,11,11,18.90
2010,08,12,11,12,18.90
2010,08,12,11,13,18.90
2010,08,12,11,14,18.80
2010,08,12,11,15,18.70
2010,08,12,11,16,18.60
2010,08,12,11,17,18.60
2010,08,12,11,18,18.60
2010,08,12,11,19,18.70
2010,08,12,11,20,18.70
2010,08,12,11,21,18.70
2010,08,12,11,22,18.60
2010,08,12,11,23,18.50
2010,08,12,11,24,18.50
2010,08,12,11,25,18.60
2010,08,12,11,26,18.60
2010,08,12,11,27,18.70
2010,08,12,11,28,18.70
2010,08,12,11,29,18.80
2010,08,12,11,30,18.80
2010,08,12,11,31,18.80
2010,08,12,11,32,18.80
2010,08,12,11,33,18.70
2010,08,12,11,34,18.80
2010,08,12,11,35,18.70
2010,08,12,11,36,18.60
2010,08,12,11,37,18.60
2010,08,12,11,38,18.60
2010,08,12,11,39,18.60
2010,08,12,11,40,18.70
2010,08,12,11,41,18.70
2010,08,12,11,42,18.80
2010,08,12,11,43,18.90
2010,08,12,11,44,18.90
2010,08,12,11,45,18.90
2010,08,12,11,46,18.90
2010,08,12,11,47,18.90
2010,08,12,11,48,18.90
2010,08,12,11,49,18.90
2010,08,12,11,50,19.00
2010,08,12,11,51,19.10
2010,08,12,11,52,19.20
2010,08,12,11,53,19.30
2010,08,12,11,54,19.40
2010,08,12,11,55,19.40
2010,08,12,11,56,19.50
2010,08,12,11,57,19.40
2010,08,12,11,58,19.40
2010,08,12,11,59,19.40
2010,08,12,12,00,19.40
2010,08,12,12,01,19.40
2010,08,12,12,02,19.40
2010,08,12,12,03,19.40
2010,08,12,12,04,19.40
2010,08,12,12,05,19.40
2010,08,12,12,06,19.40
2010,08,12,12,07,19.40
2010,08,12,12,08,19.40
2010,08,12,12,09,19.40
2010,08,12,12,10,19.50
2010,08,12,12,11,19.50
2010,08,12,12,12,19.50
2010,08,12,12,13,19.60
2010,08,12,12,14,19.60
2010,08,12,12,15,19.60
2010,08,12,12,16,19.60
2010,08,12,12,17,19.60
2010,08,12,12,18,19.60
2010,08,12,12,19,19.60
2010,08,12,12,20,19.70
2010,08,12,12,21,19.70
2010,08,12,12,22,19.60
2010,08,12,12,23,19.60
2010,08,12,12,24,19.60
2010,08,12,12,25,19.60
2010,08,12,12,26,19.60
2010,08,12,12,27,19.60
2010,08,12,12,28,19.60
2010,08,12,12,29,19.60
2010,08,12,12,30,19.70
2010,08,12,12,31,19.70
2010,08,12,12,32,19.70
2010,08,12,12,33,19.70
2010,08,12,12,34,19.70
2010,08,12,12,35,19.70
2010,08,12,12,36,19.80
2010,08,12,12,37,19.80
2010,08,12,12,38,19.70
2010,08,12,12,39,19.70
2010,08,12,12,40,19.50
2010,08,12,12,41,19.50
2010,08,12,12,42,19.60
2010,08,12,12,43,19.70
2010,08,12,12,44,19.70
2010,08,12,12,45,19.70
2010,08,12,12,46,19.80
2010,08,12,12,47,19.80
2010,08,12,12,48,19.80
2010,08,12,12,49,19.70
2010,08,12,12,50,19.60
2010,08,12,12,51,19.60
2010,08,12,12,52,19.50
2010,08,12,12,53,19.50
2010,08,12,12,54,19.40
2010,08,12,12,55,19.40
2010,08,12,12,56,19.40
2010,08,12,12,57,19.50
2010,08,12,12,58,19.50
2010,08,12,12,59,19.50
2010,08,12,13,00,19.50
2010,08,12,13,01,19.60
2010,08,12,13,02,19.60
2010,08,12,13,03,19.70
2010,08,12,13,04,19.80
2010,08,12,13,05,19.90
2010,08,12,13,06,20.00
2010,08,12,13,07,20.00
2010,08,12,13,08,19.90
2010,08,12,13,09,19.90
2010,08,12,13,10,19.90
2010,08,12,13,11,19.80
2010,08,12,13,12,19.80
2010,08,12,13,13,19.70
2010,08,12,13,14,19.80
2010,08,12,13,15,19.80
2010,08,12,13,16,19.90
2010,08,12,13,17,20.00
2010,08,12,13,18,20.00
2010,08,12,13,19,20.00
2010,08,12,13,20,19.90
2010,08,12,13,21,19.90
2010,08,12,13,22,19.80
2010,08,12,13,23,19.80
2010,08,12,13,24,19.70
2010,08,12,13,25,19.70
2010,08,12,13,26,19.70
2010,08,12,13,27,19.80
2010,08,12,13,28,19.90
2010,08,12,13,29,19.90
2010,08,12,13,30,20.00
2010,08,12,13,31,20.10
2010,08,12,13,32,20.10
2010,08,12,13,33,20.10
2010,08,12,13,34,20.10
2010,08,12,13,35,20.10
2010,08,12,13,36,20.10
2010,08,12,13,37,20.20
2010,08,12,13,38,20.20
2010,08,12,13,39,20.30
2010,08,12,13,40,20.30
2010,08,12,13,41,20.30
2010,08,12,13,42,20.30
2010,08,12,13,43,20.30
2010,08,12,13,44,20.30
2010,08,12,13,45,20.40
2010,08,12,13,46,20.50
2010,08,12,13,47,20.60
2010,08,12,13,48,20.70
2010,08,12,13,49,20.70
2010,08,12,13,50,20.70
2010,08,12,13,51,20.70
2010,08,12,13,52,20.70
2010,08,12,13,53,20.70
2010,08,12,13,54,20.70
2010,08,12,13,55,20.80
2010,08,12,13,56,20.90
2010,08,12,13,57,20.90
2010,08,12,13,58,21.00
2010,08,12,13,59,21.10
2010,08,12,14,00,21.10
2010,08,12,14,01,21.10
2010,08,12,14,02,21.00
2010,08,12,14,03,21.00
2010,08,12,14,04,21.10
2010,08,12,14,05,21.00
2010,08,12,14,06,21.00
2010,08,12,14,07,20.90
2010,08,12,14,08,20.80
2010,08,12,14,09,20.80
2010,08,12,14,10,20.80
2010,08,12,14,11,20.80
2010,08,12,14,12,20.90
2010,08,12,14,13,20.90
2010,08,12,14,14,21.00
2010,08,12,14,15,21.00
2010,08,12,14,16,21.00
2010,08,12,14,17,21.10
2010,08,12,14,18,21.10
2010,08,12,14,19,21.20
2010,08,12,14,20,21.20
2010,08,12,14,21,21.10
2010,08,12,14,22,21.10
2010,08,12,14,23,21.00
2010,08,12,14,24,21.00
2010,08,12,14,25,21.00
2010,08,12,14,26,20.90
2010,08,12,14,27,20.80
2010,08,12,14,28,20.80
2010,08,12,14,29,20.80
2010,08,12,14,30,20.80
2010,08,12,14,31,20.90
2010,08,12,14,32,21.00
2010,08,12,14,33,21.10
2010,08,12,14,34,21.10
2010,08,12,14,35,21.10
2010,08,12,14,36,21.00
2010,08,12,14,37,21.00
2010,08,12,14,38,21.00
2010,08,12,14,39,21.10
2010,08,12,14,40,21.10
2010,08,12,14,41,21.10
2010,08,12,14,42,21.10
2010,08,12,14,43,21.10
2010,08,12,14,44,21.20
2010,08,12,14,45,21.20
2010,08,12,14,46,21.30
2010,08,12,14,47,21.40
2010,08,12,14,48,21.40
2010,08,12,14,49,21.40
2010,08,12,14,50,21.40
2010,08,12,14,51,21.30
2010,08,12,14,52,21.30
2010,08,12,14,53,21.30
2010,08,12,14,54,21.40
2010,08,12,14,55,21.40
2010,08,12,14,56,21.50
2010,08,12,14,57,21.50
2010,08,12,14,58,21.60
2010,08,12,14,59,21.60
2010,08,12,15,00,21.60
2010,08,12,15,01,21.60
2010,08,12,15,02,21.60
2010,08,12,15,03,21.60
2010,08,12,15,04,21.70
2010,08,12,15,05,21.60
2010,08,12,15,06,21.50
2010,08,12,15,07,21.50
2010,08,12,15,08,21.40
2010,08,12,15,09,21.40
2010,08,12,15,10,21.30
2010,08,12,15,11,21.30
2010,08,12,15,12,21.30
2010,08,12,15,13,21.40
2010,08,12,15,14,21.50
2010,08,12,15,15,21.60
2010,08,12,15,16,21.60
2010,08,12,15,17,21.70
2010,08,12,15,18,21.80
2010,08,12,15,19,21.90
2010,08,12,15,20,22.00
2010,08,12,15,21,22.00
2010,08,12,15,22,22.00
2010,08,12,15,23,21.90
2010,08,12,15,24,21.90
2010,08,12,15,25,21.90
2010,08,12,15,26,22.10
2010,08,12,15,27,22.20
2010,08,12,15,28,22.10
2010,08,12,15,29,22.10
2010,08,12,15,30,22.00
2010,08,12,15,31,22.00
2010,08,12,15,32,22.00
2010,08,12,15,33,21.90
2010,08,12,15,34,21.90
2010,08,12,15,35,21.90
2010,08,12,15,36,22.00
2010,08,12,15,37,22.10
2010,08,12,15,38,22.10
2010,08,12,15,39,22.00
2010,08,12,15,40,22.00
2010,08,12,15,41,22.00
2010,08,12,15,42,22.00
2010,08,12,15,43,21.90
2010,08,12,15,44,21.90
2010,08,12,15,45,21.90
2010,08,12,15,46,22.00
2010,08,12,15,47,22.00
2010,08,12,15,48,22.10
2010,08,12,15,49,22.10
2010,08,12,15,50,22.20
2010,08,12,15,51,22.20
2010,08,12,15,52,22.20
2010,08,12,15,53,22.30
2010,08,12,15,54,22.40
2010,08,12,15,55,22.40
2010,08,12,15,56,22.40
2010,08,12,15,57,22.40
2010,08,12,15,58,22.30
2010,08,12,15,59,22.30
2010,08,12,16,00,22.30
2010,08,12,16,01,22.30
2010,08,12,16,02,22.40
2010,08,12,16,03,22.40
2010,08,12,16,04,22.50
2010,08,12,16,05,22.50
2010,08,12,16,06,22.50
2010,08,12,16,07,22.50
2010,08,12,16,08,22.50
2010,08,12,16,09,22.50
2010,08,12,16,10,22.40
2010,08,12,16,11,22.50
2010,08,12,16,12,22.50
2010,08,12,16,13,22.50
2010,08,12,16,14,22.60
2010,08,12,16,15,22.60
2010,08,12,16,16,22.60
2010,08,12,16,17,22.50
2010,08,12,16,18,22.50
2010,08,12,16,19,22.50
2010,08,12,16,20,22.50
2010,08,12,16,21,22.50
2010,08,12,16,22,22.40
2010,08,12,16,23,22.40
2010,08,12,16,24,22.40
2010,08,12,16,25,22.40
2010,08,12,16,26,22.30
2010,08,12,16,27,22.30
2010,08,12,16,28,22.30
2010,08,12,16,29,22.30
2010,08,12,16,30,22.30
2010,08,12,16,31,22.30
2010,08,12,16,32,22.30
2010,08,12,16,33,22.30
2010,08,12,16,34,22.30
2010,08,12,16,35,22.30
2010,08,12,16,36,22.40
2010,08,12,16,37,22.50
2010,08,12,16,38,22.50
2010,08,12,16,39,22.60
2010,08,12,16,40,22.60
2010,08,12,16,41,22.50
2010,08,12,16,42,22.50
2010,08,12,16,43,22.50
2010,08,12,16,44,22.50
2010,08,12,16,45,22.50
2010,08,12,16,46,22.50
2010,08,12,16,47,22.50
2010,08,12,16,48,22.60
2010,08,12,16,49,22.60
2010,08,12,16,50,22.60
2010,08,12,16,51,22.50
2010,08,12,16,52,22.60
2010,08,12,16,53,22.60
2010,08,12,16,54,22.70
2010,08,12,16,55,22.80
2010,08,12,16,56,22.80
2010,08,12,16,57,22.90
2010,08,12,16,58,22.90
2010,08,12,16,59,23.00
2010,08,12,17,00,23.00
2010,08,12,17,01,23.00
2010,08,12,17,02,23.00
2010,08,12,17,03,22.90
2010,08,12,17,04,23.00
2010,08,12,17,05,23.00
2010,08,12,17,06,22.90
2010,08,12,17,07,22.90
2010,08,12,17,08,23.00
2010,08,12,17,09,23.00
2010,08,12,17,10,23.10
2010,08,12,17,11,23.10
2010,08,12,17,12,23.10
2010,08,12,17,13,23.10
2010,08,12,17,14,23.00
2010,08,12,17,15,23.00
2010,08,12,17,16,23.00
2010,08,12,17,17,23.00
2010,08,12,17,18,23.10
2010,08,12,17,19,23.10